User: anonymous   Login
Location: Drayton Valley
(53.2170°N, 114.9830°W)
Time: 02:44:29
(UTC-06:00)
Language:

MOZ.5/SAFIR/RUBIN 5/SL-8 - Orbit

View from above orbital plane
View from above orbital plane
View from above satellite
View from above satellite

Ground track
Ground track

The orbit data is extracted from the following two-line orbital elements,

1 28898U 05043G   16149.88682698  .00000105  00000-0  30902-4 0  9997
2 28898  97.8777 311.5605 0018853 319.3813  40.5980 14.60098813563758
Epoch (UTC): 28 May 2016 21:17:01
Eccentricity: 0.0018853
inclination: 97.8777°
perigee height: 679 km
apogee height: 706 km
right ascension of ascending node: 311.5605°
argument of perigee: 319.3813°
revolutions per day: 14.60098813
mean anomaly at epoch: 40.5980°
orbit number at epoch: 56375

The dashed part of the orbit path shows where the satellite is in the earth's shadow,  

DLR